WB7UVH Weather Reports


Display with metric or nautical units.
time (UTC)temp
F
wind
direction
speed
MPH
gust
MPH
rain 1hr
in
rain 24hr
in
rain mn
in
humidity
%
barometer
mb
20260504081504 62 69 0.0 0.0 0.00 0.00 0.00 67 1012.7
20260504050004 69 69 0.0 0.0 0.00 0.00 0.00 57 1011.8
20260504044504 69 69 0.0 0.0 0.00 0.00 0.00 56 1011.7
20260504043004 70 69 0.0 0.0 0.00 0.00 0.00 56 1011.5
20260504041504 71 69 0.0 0.0 0.00 0.00 0.00 56 1011.4
20260504040004 71 69 0.0 0.0 0.00 0.00 0.00 54 1011.2
20260504034504 72 69 0.0 0.0 0.00 0.00 0.00 50 1011.0
20260504031504 74 69 0.0 0.0 0.00 0.00 0.00 44 1010.7
20260504030004 74 69 0.0 0.0 0.00 0.00 0.00 43 1010.5
20260504024504 75 69 2.0 2.0 0.00 0.00 0.00 42 1010.4
20260504023003 76 69 0.0 0.0 0.00 0.00 0.00 44 1010.4
20260504021504 77 69 0.0 0.0 0.00 0.00 0.00 45 1010.5
20260504014503 79 69 0.0 0.0 0.00 0.00 0.00 43 1010.6
20260504013003 80 69 0.0 0.0 0.00 0.00 0.00 41 1010.7
20260504011503 82 70 0.0 0.0 0.00 0.00 0.00 41 1010.7
20260504004504 85 107 0.0 0.0 0.00 0.00 0.00 35 1011.0
20260504003004 86 53 0.0 0.0 0.00 0.00 0.00 28 1011.0
20260504001504 87 75 0.0 0.0 0.00 0.00 0.00 28 1011.1
20260504000003 87 56 0.0 0.0 0.00 0.00 0.00 28 1011.2
20260503234504 88 76 0.0 2.0 0.00 0.00 0.00 26 1011.3
20260503233003 88 58 0.0 0.0 0.00 0.00 0.00 25 1011.5
20260503231503 89 95 0.0 1.0 0.00 0.00 0.00 24 1011.6
20260503230004 89 45 0.0 0.0 0.00 0.00 0.00 26 1011.9
20260503224504 90 64 0.0 0.0 0.00 0.00 0.00 27 1012.2
20260503223004 90 67 0.0 3.0 0.00 0.00 0.00 29 1012.4
20260503221504 90 83 0.0 2.0 0.00 0.00 0.00 29 1012.7
20260503220004 91 125 0.0 0.0 0.00 0.00 0.00 29 1012.9
20260503214504 90 55 0.0 3.0 0.00 0.00 0.00 30 1012.9
20260503213004 90 55 0.0 6.0 0.00 0.00 0.00 29 1013.0
20260503210003 89 91 0.0 12.0 0.00 0.00 0.00 30 1013.2
20260503204504 89 135 0.0 2.0 0.00 0.00 0.00 33 1013.5
20260503201504 87 72 0.0 12.0 0.00 0.00 0.00 36 1013.8
20260503193004 85 77 2.0 15.0 0.00 0.00 0.00 35 1014.4
20260503191504 84 50 1.0 14.0 0.00 0.00 0.00 35 1014.7
20260503184504 82 51 1.0 13.0 0.00 0.00 0.00 43 1015.1
20260503183004 79 28 0.0 5.0 0.00 0.00 0.00 46 1015.4
20260503180005 74 98 0.0 0.0 0.00 0.00 0.00 50 1015.6
20260503174504 71 135 0.0 1.0 0.00 0.00 0.00 58 1015.9
20260503171504 70 142 0.0 0.0 0.00 0.00 0.00 58 1016.2